Weather History for KCBK - August, 2013

Change the Weather History Date:

Saturday, August 10, 2013

  Actual Average (KGLD) Record (KGLD)
Temperature  
Mean Temperature 66 °F 75 °F  
Max Temperature 80 °F 88 °F 105 °F (1964)
Min Temperature 53 °F 61 °F 48 °F (1960)
Degree Days  
Heating Degree Days 0 0  
Month to date heating degree days 0  
Since 1 June heating degree days 41  
Since 1 July heating degree days 4  
Cooling Degree Days 2 10  
Month to date cooling degree days 102  
Year to date cooling degree days 656  
Since 1 June cooling degree days 615  
Growing Degree Days 16 (Base 50)    
Moisture  
Dew Point 60 °F    
Average Humidity 75    
Maximum Humidity 100    
Minimum Humidity 51    
Precipitation  
Precipitation 0.00 in 0.10 in 2.05 in (1977)
Month to date precipitation 1.04  
Year to date precipitation 14.24  
Snow  
Snow 0.00 in 0.00 in - ()
Month to date snowfall 0.0  
Since 1 June snowfall 0.0  
Since 1 July snowfall 0.0  
Snow Depth -    
Sea Level Pressure  
Sea Level Pressure 30.22 in    
Wind  
Wind Speed 9 mph (South)    
Max Wind Speed 20 mph    
Max Gust Speed 26 mph    
Visibility 10 miles    
Events      
T = Trace of Precipitation, MM = Missing Value Source: NWS Daily Summary

Daily Weather History Graph

Daily Weather History Graph

Search for Another Location

Airport or City:

Trip Planner

Search our weather history database for the weather conditions in past years. The results will help you decide how hot, cold, wet, or windy it might be!

Date:

Astronomy

Aug. 10, 2013 Rise Set
Actual Time 6:52 AM CDT 8:45 PM CDT
Civil Twilight 6:23 AM CDT 9:14 PM CDT
Nautical Twilight 5:47 AM CDT 9:50 PM CDT
Astronomical Twilight 5:09 AM CDT 10:28 PM CDT
Moon 10:39 AM CDT (8/10) 10:30 PM CDT (8/10)
Length of Visible Light 14h 51m
Length of Day
13h 53m
Waxing Crescent, 14% of the Moon is Illuminated
Aug 10
Waxing Crescent
Aug 14
First Quarter
Aug 20
Full
Aug 28
Last Quarter
Sep 5
New

Hourly Weather History & Observations

Time (CDT) Temp. Heat Index Dew Point Humidity Pressure Visibility Wind Dir Wind Speed Gust Speed Precip Events Conditions
12:15 AM 60.8 °F - 59.0 °F 94% 30.25 in 10.0 mi SSW 4.6 mph - N/A   Clear
12:35 AM 62.6 °F - 59.0 °F 88% 30.26 in 10.0 mi SSW 6.9 mph - N/A   Clear
12:55 AM 62.6 °F - 59.0 °F 88% 30.26 in 10.0 mi SSW 6.9 mph - N/A   Clear
1:15 AM 62.6 °F - 59.0 °F 88% 30.25 in 10.0 mi SSW 5.8 mph - N/A   Clear
1:35 AM 60.8 °F - 59.0 °F 94% 30.25 in 10.0 mi SSW 6.9 mph - N/A   Clear
1:55 AM 60.8 °F - 59.0 °F 94% 30.25 in 10.0 mi SSW 5.8 mph - N/A   Clear
2:15 AM 60.8 °F - 59.0 °F 94% 30.25 in 10.0 mi SSW 9.2 mph - N/A   Clear
2:35 AM 60.8 °F - 59.0 °F 94% 30.25 in 10.0 mi SSW 9.2 mph - N/A   Clear
2:55 AM 60.8 °F - 59.0 °F 94% 30.25 in 10.0 mi SSW 6.9 mph - N/A   Clear
3:15 AM 59.0 °F - 59.0 °F 100% 30.25 in 10.0 mi SSW 5.8 mph - N/A   Clear
3:35 AM 59.0 °F - 59.0 °F 100% 30.24 in 10.0 mi SW 3.5 mph - N/A   Clear
3:55 AM 57.2 °F - 57.2 °F 100% 30.24 in 10.0 mi SW 3.5 mph - N/A   Clear
4:15 AM 57.2 °F - 57.2 °F 100% 30.25 in 10.0 mi SW 4.6 mph - N/A   Clear
4:35 AM 55.4 °F - 55.4 °F 100% 30.25 in 10.0 mi WSW 5.8 mph - N/A   Clear
4:55 AM 55.4 °F - 55.4 °F 100% 30.25 in 10.0 mi WSW 5.8 mph - N/A   Clear
5:15 AM 55.4 °F - 55.4 °F 100% 30.25 in 10.0 mi SW 6.9 mph - N/A   Clear
5:35 AM 55.4 °F - 55.4 °F 100% 30.25 in 10.0 mi SW 5.8 mph - N/A   Clear
5:55 AM 55.4 °F - 55.4 °F 100% 30.25 in 10.0 mi SW 5.8 mph - N/A   Clear
6:15 AM 55.4 °F - 55.4 °F 100% 30.25 in 10.0 mi SW 4.6 mph - N/A   Clear
6:35 AM 55.4 °F - 55.4 °F 100% 30.24 in 10.0 mi SW 5.8 mph - N/A   Clear
6:55 AM 53.6 °F - 53.6 °F 100% 30.24 in 10.0 mi WSW 3.5 mph - N/A   Clear
7:15 AM 55.4 °F - 55.4 °F 100% 30.25 in 7.0 mi WSW 3.5 mph - N/A   Clear
7:35 AM 55.4 °F - 55.4 °F 100% 30.25 in 10.0 mi SW 3.5 mph - N/A   Clear
7:55 AM 59.0 °F - 59.0 °F 100% 30.25 in 10.0 mi SW 4.6 mph - N/A   Clear
8:15 AM 59.0 °F - 59.0 °F 100% 30.26 in 10.0 mi SW 4.6 mph - N/A   Clear
8:35 AM 60.8 °F - 59.0 °F 94% 30.26 in 10.0 mi SW 5.8 mph - N/A   Clear
8:55 AM 64.4 °F - 59.0 °F 83% 30.26 in 10.0 mi SW 4.6 mph - N/A   Clear
9:15 AM 68.0 °F - 59.0 °F 73% 30.26 in 10.0 mi SW 6.9 mph - N/A   Clear
9:35 AM 69.8 °F - 59.0 °F 68% 30.26 in 10.0 mi South 8.1 mph - N/A   Clear
9:55 AM 69.8 °F - 59.0 °F 68% 30.25 in 10.0 mi South 8.1 mph - N/A   Clear
10:15 AM 71.6 °F - 59.0 °F 64% 30.25 in 10.0 mi South 11.5 mph 16.1 mph N/A   Clear
10:35 AM 73.4 °F - 59.0 °F 61% 30.25 in 10.0 mi SSE 10.4 mph - N/A   Clear
10:55 AM 73.4 °F - 59.0 °F 61% 30.26 in 10.0 mi South 15.0 mph 19.6 mph N/A   Clear
11:15 AM 73.4 °F - 59.0 °F 61% 30.25 in 10.0 mi SSE 16.1 mph - N/A   Clear
11:35 AM 73.4 °F - 59.0 °F 61% 30.25 in 10.0 mi South 15.0 mph 20.7 mph N/A   Clear
11:55 AM 75.2 °F - 59.0 °F 57% 30.25 in 10.0 mi SSE 19.6 mph - N/A   Clear
12:15 PM 77.0 °F - 59.0 °F 54% 30.25 in 10.0 mi SSE 16.1 mph 21.9 mph N/A   Clear
12:35 PM 77.0 °F - 60.8 °F 57% 30.25 in 10.0 mi SSE 15.0 mph 18.4 mph N/A   Clear
12:55 PM 77.0 °F - 59.0 °F 54% 30.24 in 10.0 mi SSE 17.3 mph 20.7 mph N/A   Clear
1:15 PM 77.0 °F - 59.0 °F 54% 30.24 in 10.0 mi SSE 13.8 mph 26.5 mph N/A   Clear
1:35 PM 78.8 °F - 60.8 °F 54% 30.23 in 10.0 mi SSE 16.1 mph 20.7 mph N/A   Clear
1:55 PM 78.8 °F - 60.8 °F 54% 30.23 in 10.0 mi SSE 17.3 mph 23.0 mph N/A   Clear
2:15 PM 78.8 °F - 60.8 °F 54% 30.23 in 10.0 mi South 18.4 mph 23.0 mph N/A   Scattered Clouds
2:35 PM 78.8 °F - 60.8 °F 54% 30.22 in 10.0 mi SSE 13.8 mph 23.0 mph N/A   Scattered Clouds
2:55 PM 78.8 °F - 60.8 °F 54% 30.21 in 10.0 mi SSE 15.0 mph 23.0 mph N/A   Scattered Clouds
3:15 PM 78.8 °F - 60.8 °F 54% 30.20 in 10.0 mi SSE 15.0 mph 25.3 mph N/A   Scattered Clouds
3:35 PM 80.6 °F 81.5 °F 60.8 °F 51% 30.20 in 10.0 mi South 16.1 mph 21.9 mph N/A   Mostly Cloudy
3:55 PM 78.8 °F - 60.8 °F 54% 30.20 in 10.0 mi SSE 13.8 mph 23.0 mph N/A   Scattered Clouds
4:15 PM 80.6 °F 81.8 °F 62.6 °F 54% 30.19 in 10.0 mi SSE 15.0 mph - N/A   Mostly Cloudy
4:35 PM 80.6 °F 81.8 °F 62.6 °F 54% 30.18 in 10.0 mi SSE 17.3 mph 24.2 mph N/A   Scattered Clouds
4:55 PM 80.6 °F 81.8 °F 62.6 °F 54% 30.18 in 10.0 mi SSE 17.3 mph 23.0 mph N/A   Scattered Clouds
5:15 PM 80.6 °F 81.8 °F 62.6 °F 54% 30.17 in 10.0 mi SSE 13.8 mph 21.9 mph N/A   Scattered Clouds
5:35 PM 80.6 °F 81.8 °F 62.6 °F 54% 30.17 in 10.0 mi SSE 15.0 mph 21.9 mph N/A   Scattered Clouds
5:55 PM 80.6 °F 81.8 °F 62.6 °F 54% 30.16 in 10.0 mi SSE 17.3 mph 24.2 mph N/A   Scattered Clouds
6:15 PM 80.6 °F 81.8 °F 62.6 °F 54% 30.15 in 10.0 mi SSE 16.1 mph 21.9 mph N/A   Scattered Clouds
6:35 PM 78.8 °F - 62.6 °F 57% 30.15 in 10.0 mi SSE 16.1 mph 19.6 mph N/A   Scattered Clouds
6:55 PM 78.8 °F - 62.6 °F 57% 30.14 in 10.0 mi SE 18.4 mph 21.9 mph N/A   Clear
7:15 PM 78.8 °F - 62.6 °F 57% 30.14 in 10.0 mi South 15.0 mph 23.0 mph N/A   Clear
7:35 PM 77.0 °F - 62.6 °F 61% 30.14 in 10.0 mi SE 18.4 mph - N/A   Clear
7:55 PM 75.2 °F - 62.6 °F 65% 30.14 in 10.0 mi SSE 13.8 mph 19.6 mph N/A   Clear
8:15 PM 75.2 °F - 62.6 °F 65% 30.14 in 10.0 mi SSE 11.5 mph - N/A   Clear
8:35 PM 73.4 °F - 62.6 °F 69% 30.13 in 10.0 mi SSE 11.5 mph - N/A   Clear
8:55 PM 71.6 °F - 62.6 °F 73% 30.14 in 10.0 mi SSE 12.7 mph - N/A   Clear
9:15 PM 71.6 °F - 62.6 °F 73% 30.14 in 10.0 mi South 10.4 mph - N/A   Clear
9:35 PM 71.6 °F - 62.6 °F 73% 30.15 in 10.0 mi South 8.1 mph - N/A   Clear
9:55 PM 69.8 °F - 62.6 °F 78% 30.17 in 10.0 mi South 9.2 mph - N/A   Clear
10:15 PM 69.8 °F - 62.6 °F 78% 30.17 in 10.0 mi SSE 10.4 mph - N/A   Clear
10:35 PM 69.8 °F - 62.6 °F 78% 30.18 in 10.0 mi SSE 9.2 mph - N/A   Clear
10:55 PM 68.0 °F - 62.6 °F 83% 30.18 in 10.0 mi South 8.1 mph - N/A   Clear
11:15 PM 68.0 °F - 62.6 °F 83% 30.18 in 10.0 mi South 8.1 mph - N/A   Clear
11:35 PM 68.0 °F - 62.6 °F 83% 30.18 in 10.0 mi South 10.4 mph - N/A   Clear
11:55 PM 68.0 °F - 62.6 °F 83% 30.18 in 10.0 mi South 10.4 mph - N/A   Clear